Time,TemperatureF,DewpointF,PressureIn,WindDirection,WindDirectionDegrees,WindSpeedMPH,WindSpeedGustMPH,Humidity,HourlyPrecipIn,Conditions,Clouds,dailyrainin,SoftwareType,DateUTC
2013-12-17 00:03:00,36.0,-99.9,0.00,West,271,10.0,12.0,-999,0.00,,,-99.99,,2013-12-17 06:03:00,
2013-12-17 00:08:00,35.0,-99.9,0.00,WNW,289,10.0,11.0,-999,0.00,,,-99.99,,2013-12-17 06:08:00,
2013-12-17 00:13:00,35.0,-99.9,0.00,WNW,288,12.0,14.0,-999,0.00,,,-99.99,,2013-12-17 06:13:00,
2013-12-17 00:18:00,34.0,-99.9,0.00,WNW,289,12.0,14.0,-999,0.00,,,-99.99,,2013-12-17 06:18:00,
2013-12-17 00:23:00,34.0,-99.9,0.00,WNW,286,12.0,13.0,-999,0.00,,,-99.99,,2013-12-17 06:23:00,
2013-12-17 00:28:00,34.0,-99.9,0.00,NW,307,11.0,13.0,-999,0.00,,,-99.99,,2013-12-17 06:28:00,
2013-12-17 00:33:00,34.0,-99.9,0.00,NW,310,12.0,13.0,-999,0.00,,,-99.99,,2013-12-17 06:33:00,
2013-12-17 00:38:00,35.0,-99.9,0.00,WNW,303,10.0,12.0,-999,0.00,,,-99.99,,2013-12-17 06:38:00,
2013-12-17 00:43:00,34.0,-99.9,0.00,NW,321,9.0,11.0,-999,0.00,,,-99.99,,2013-12-17 06:43:00,
2013-12-17 00:48:00,35.0,-99.9,0.00,NW,320,9.0,11.0,-999,0.00,,,-99.99,,2013-12-17 06:48:00,
2013-12-17 00:53:00,34.0,-99.9,0.00,NW,324,9.0,11.0,-999,0.00,,,-99.99,,2013-12-17 06:53:00,
2013-12-17 00:58:00,33.0,-99.9,0.00,NNW,338,8.0,9.0,-999,0.00,,,-99.99,,2013-12-17 06:58:00,
2013-12-17 01:03:00,32.0,-99.9,0.00,NNW,347,7.0,9.0,-999,0.00,,,-99.99,,2013-12-17 07:03:00,
2013-12-17 01:08:00,32.0,-99.9,0.00,NNW,344,7.0,9.0,-999,0.00,,,-99.99,,2013-12-17 07:08:00,
2013-12-17 01:13:00,32.0,-99.9,0.00,North,354,7.0,9.0,-999,0.00,,,-99.99,,2013-12-17 07:13:00,
2013-12-17 01:18:00,32.0,-99.9,0.00,NNW,345,7.0,8.0,-999,0.00,,,-99.99,,2013-12-17 07:18:00,
2013-12-17 01:23:00,31.0,-99.9,0.00,North,1,7.0,8.0,-999,0.00,,,-99.99,,2013-12-17 07:23:00,
2013-12-17 01:28:00,30.0,-99.9,0.00,NNW,329,7.0,8.0,-999,0.00,,,-99.99,,2013-12-17 07:28:00,
2013-12-17 01:33:00,30.0,-99.9,0.00,NNW,347,6.0,6.0,-999,0.00,,,-99.99,,2013-12-17 07:33:00,
2013-12-17 01:38:00,30.0,-99.9,0.00,NNW,347,6.0,6.0,-999,0.00,,,-99.99,,2013-12-17 07:38:00,
2013-12-17 01:43:00,29.0,-99.9,0.00,NNW,330,8.0,8.0,-999,0.00,,,-99.99,,2013-12-17 07:43:00,
2013-12-17 01:48:00,29.0,-99.9,0.00,NNW,336,8.0,8.0,-999,0.00,,,-99.99,,2013-12-17 07:48:00,
2013-12-17 01:53:00,29.0,-99.9,0.00,NNW,331,7.0,7.0,-999,0.00,,,-99.99,,2013-12-17 07:53:00,
2013-12-17 01:58:00,29.0,-99.9,0.00,NNW,329,7.0,7.0,-999,0.00,,,-99.99,,2013-12-17 07:58:00,
2013-12-17 02:03:00,28.0,-99.9,0.00,NNW,329,8.0,8.0,-999,0.00,,,-99.99,,2013-12-17 08:03:00,
2013-12-17 02:08:00,28.0,-99.9,0.00,NNW,337,8.0,8.0,-999,0.00,,,-99.99,,2013-12-17 08:08:00,
2013-12-17 02:13:00,28.0,-99.9,0.00,NW,312,8.0,9.0,-999,0.00,,,-99.99,,2013-12-17 08:13:00,
2013-12-17 02:18:00,28.0,-99.9,0.00,NNW,338,7.0,8.0,-999,0.00,,,-99.99,,2013-12-17 08:18:00,
2013-12-17 02:23:00,29.0,-99.9,0.00,NNW,337,6.0,7.0,-999,0.00,,,-99.99,,2013-12-17 08:23:00,
2013-12-17 02:28:00,29.0,-99.9,0.00,NNW,336,5.0,7.0,-999,0.00,,,-99.99,,2013-12-17 08:28:00,
2013-12-17 02:33:00,28.0,-99.9,0.00,NNW,327,7.0,8.0,-999,0.00,,,-99.99,,2013-12-17 08:33:00,
2013-12-17 02:38:00,28.0,-99.9,0.00,NNW,341,7.0,7.0,-999,0.00,,,-99.99,,2013-12-17 08:38:00,
2013-12-17 02:43:00,28.0,-99.9,0.00,NNW,338,6.0,6.0,-999,0.00,,,-99.99,,2013-12-17 08:43:00,
2013-12-17 02:48:00,28.0,-99.9,0.00,NNW,338,5.0,5.0,-999,0.00,,,-99.99,,2013-12-17 08:48:00,
2013-12-17 02:53:00,29.0,-99.9,0.00,NW,326,5.0,5.0,-999,0.00,,,-99.99,,2013-12-17 08:53:00,
2013-12-17 02:58:00,28.0,-99.9,0.00,NW,312,5.0,6.0,-999,0.00,,,-99.99,,2013-12-17 08:58:00,
2013-12-17 03:03:00,27.0,-99.9,0.00,NW,317,5.0,6.0,-999,0.00,,,-99.99,,2013-12-17 09:03:00,
2013-12-17 03:08:00,27.0,-99.9,0.00,WNW,303,5.0,6.0,-999,0.00,,,-99.99,,2013-12-17 09:08:00,
2013-12-17 03:13:00,28.0,-99.9,0.00,NW,310,6.0,6.0,-999,0.00,,,-99.99,,2013-12-17 09:13:00,
2013-12-17 03:18:00,28.0,-99.9,0.00,WNW,303,6.0,7.0,-999,0.00,,,-99.99,,2013-12-17 09:18:00,
2013-12-17 03:23:00,26.0,-99.9,0.00,West,266,6.0,7.0,-999,0.00,,,-99.99,,2013-12-17 09:23:00,
2013-12-17 03:28:00,24.0,-99.9,0.00,WSW,251,8.0,8.0,-999,0.00,,,-99.99,,2013-12-17 09:28:00,
2013-12-17 03:33:00,25.0,-99.9,0.00,West,262,7.0,8.0,-999,0.00,,,-99.99,,2013-12-17 09:33:00,
2013-12-17 03:38:00,26.0,-99.9,0.00,West,279,7.0,8.0,-999,0.00,,,-99.99,,2013-12-17 09:38:00,
2013-12-17 03:43:00,25.0,-99.9,0.00,West,261,8.0,8.0,-999,0.00,,,-99.99,,2013-12-17 09:43:00,
2013-12-17 03:48:00,25.0,-99.9,0.00,West,265,8.0,8.0,-999,0.00,,,-99.99,,2013-12-17 09:48:00,
2013-12-17 03:53:00,27.0,-99.9,0.00,WNW,298,7.0,8.0,-999,0.00,,,-99.99,,2013-12-17 09:53:00,
2013-12-17 03:58:00,27.0,-99.9,0.00,WNW,289,7.0,8.0,-999,0.00,,,-99.99,,2013-12-17 09:58:00,
2013-12-17 04:03:00,25.0,-99.9,0.00,West,272,7.0,8.0,-999,0.00,,,-99.99,,2013-12-17 10:03:00,
2013-12-17 04:08:00,25.0,-99.9,0.00,West,268,8.0,8.0,-999,0.00,,,-99.99,,2013-12-17 10:08:00,
2013-12-17 04:13:00,25.0,-99.9,0.00,WSW,251,9.0,9.0,-999,0.00,,,-99.99,,2013-12-17 10:13:00,
2013-12-17 04:18:00,24.0,-99.9,0.00,WSW,245,9.0,10.0,-999,0.00,,,-99.99,,2013-12-17 10:18:00,
2013-12-17 04:28:00,24.0,-99.9,0.00,West,261,9.0,9.0,-999,0.00,,,-99.99,,2013-12-17 10:28:00,
2013-12-17 04:33:00,25.0,-99.9,0.00,WSW,255,9.0,9.0,-999,0.00,,,-99.99,,2013-12-17 10:33:00,
2013-12-17 04:38:00,26.0,-99.9,0.00,WNW,282,7.0,8.0,-999,0.00,,,-99.99,,2013-12-17 10:38:00,
2013-12-17 04:43:00,25.0,-99.9,0.00,WSW,254,9.0,9.0,-999,0.00,,,-99.99,,2013-12-17 10:43:00,
2013-12-17 04:48:00,25.0,-99.9,0.00,West,271,9.0,10.0,-999,0.00,,,-99.99,,2013-12-17 10:48:00,
2013-12-17 04:53:00,26.0,-99.9,0.00,West,265,9.0,10.0,-999,0.00,,,-99.99,,2013-12-17 10:53:00,
2013-12-17 04:58:00,27.0,-99.9,0.00,West,274,11.0,12.0,-999,0.00,,,-99.99,,2013-12-17 10:58:00,
2013-12-17 05:03:00,26.0,-99.9,0.00,West,269,11.0,12.0,-999,0.00,,,-99.99,,2013-12-17 11:03:00,
2013-12-17 05:08:00,26.0,-99.9,0.00,West,269,9.0,11.0,-999,0.00,,,-99.99,,2013-12-17 11:08:00,
2013-12-17 05:13:00,26.0,-99.9,0.00,West,271,9.0,10.0,-999,0.00,,,-99.99,,2013-12-17 11:13:00,
2013-12-17 05:18:00,26.0,-99.9,0.00,West,261,10.0,11.0,-999,0.00,,,-99.99,,2013-12-17 11:18:00,
2013-12-17 05:23:00,26.0,-99.9,0.00,West,266,10.0,11.0,-999,0.00,,,-99.99,,2013-12-17 11:23:00,
2013-12-17 05:28:00,26.0,-99.9,0.00,West,259,9.0,11.0,-999,0.00,,,-99.99,,2013-12-17 11:28:00,
2013-12-17 05:33:00,26.0,-99.9,0.00,West,275,9.0,10.0,-999,0.00,,,-99.99,,2013-12-17 11:33:00,
2013-12-17 05:38:00,26.0,-99.9,0.00,West,266,10.0,11.0,-999,0.00,,,-99.99,,2013-12-17 11:38:00,
2013-12-17 05:43:00,27.0,-99.9,0.00,West,271,11.0,12.0,-999,0.00,,,-99.99,,2013-12-17 11:43:00,
2013-12-17 05:48:00,27.0,-99.9,0.00,West,259,11.0,12.0,-999,0.00,,,-99.99,,2013-12-17 11:48:00,
2013-12-17 05:53:00,27.0,-99.9,0.00,West,265,11.0,12.0,-999,0.00,,,-99.99,,2013-12-17 11:53:00,
2013-12-17 05:58:00,27.0,-99.9,0.00,West,271,10.0,11.0,-999,0.00,,,-99.99,,2013-12-17 11:58:00,
2013-12-17 06:03:00,28.0,-99.9,0.00,West,264,12.0,12.0,-999,0.00,,,-99.99,,2013-12-17 12:03:00,
2013-12-17 06:08:00,28.0,-99.9,0.00,West,268,11.0,12.0,-999,0.00,,,-99.99,,2013-12-17 12:08:00,
2013-12-17 06:13:00,27.0,-99.9,0.00,WSW,257,10.0,11.0,-999,0.00,,,-99.99,,2013-12-17 12:13:00,
2013-12-17 06:18:00,27.0,-99.9,0.00,WSW,250,8.0,9.0,-999,0.00,,,-99.99,,2013-12-17 12:18:00,
2013-12-17 06:23:00,28.0,-99.9,0.00,WSW,247,9.0,10.0,-999,0.00,,,-99.99,,2013-12-17 12:23:00,
2013-12-17 06:28:00,28.0,-99.9,0.00,West,269,9.0,10.0,-999,0.00,,,-99.99,,2013-12-17 12:28:00,
2013-12-17 06:33:00,28.0,-99.9,0.00,West,265,10.0,11.0,-999,0.00,,,-99.99,,2013-12-17 12:33:00,
2013-12-17 06:38:00,29.0,-99.9,0.00,West,272,10.0,11.0,-999,0.00,,,-99.99,,2013-12-17 12:38:00,
2013-12-17 06:43:00,29.0,-99.9,0.00,West,269,10.0,11.0,-999,0.00,,,-99.99,,2013-12-17 12:43:00,
2013-12-17 06:48:00,29.0,-99.9,0.00,West,268,10.0,10.0,-999,0.00,,,-99.99,,2013-12-17 12:48:00,
2013-12-17 06:53:00,28.0,-99.9,0.00,West,275,9.0,10.0,-999,0.00,,,-99.99,,2013-12-17 12:53:00,
2013-12-17 06:58:00,29.0,-99.9,0.00,West,266,9.0,10.0,-999,0.00,,,-99.99,,2013-12-17 12:58:00,
2013-12-17 07:03:00,28.0,-99.9,0.00,West,261,9.0,10.0,-999,0.00,,,-99.99,,2013-12-17 13:03:00,
2013-12-17 07:08:00,28.0,-99.9,0.00,West,275,9.0,10.0,-999,0.00,,,-99.99,,2013-12-17 13:08:00,
2013-12-17 07:13:00,29.0,-99.9,0.00,West,272,9.0,10.0,-999,0.00,,,-99.99,,2013-12-17 13:13:00,
2013-12-17 07:18:00,29.0,-99.9,0.00,West,266,9.0,11.0,-999,0.00,,,-99.99,,2013-12-17 13:18:00,
2013-12-17 07:23:00,29.0,-99.9,0.00,West,269,9.0,10.0,-999,0.00,,,-99.99,,2013-12-17 13:23:00,
2013-12-17 07:28:00,28.0,-99.9,0.00,West,268,9.0,10.0,-999,0.00,,,-99.99,,2013-12-17 13:28:00,
2013-12-17 07:33:00,29.0,-99.9,0.00,West,264,9.0,11.0,-999,0.00,,,-99.99,,2013-12-17 13:33:00,
2013-12-17 07:38:00,29.0,-99.9,0.00,West,271,10.0,12.0,-999,0.00,,,-99.99,,2013-12-17 13:38:00,
2013-12-17 07:43:00,29.0,-99.9,0.00,West,269,10.0,11.0,-999,0.00,,,-99.99,,2013-12-17 13:43:00,
2013-12-17 07:48:00,29.0,-99.9,0.00,West,276,10.0,12.0,-999,0.00,,,-99.99,,2013-12-17 13:48:00,
2013-12-17 07:53:00,29.0,-99.9,0.00,West,275,10.0,12.0,-999,0.00,,,-99.99,,2013-12-17 13:53:00,
2013-12-17 07:58:00,28.0,-99.9,0.00,West,272,10.0,12.0,-999,0.00,,,-99.99,,2013-12-17 13:58:00,
2013-12-17 08:03:00,28.0,-99.9,0.00,West,278,10.0,11.0,-999,0.00,,,-99.99,,2013-12-17 14:03:00,
2013-12-17 08:08:00,28.0,-99.9,0.00,West,262,10.0,11.0,-999,0.00,,,-99.99,,2013-12-17 14:08:00,
2013-12-17 08:13:00,28.0,-99.9,0.00,West,274,10.0,11.0,-999,0.00,,,-99.99,,2013-12-17 14:13:00,
2013-12-17 08:18:00,28.0,-99.9,0.00,West,262,9.0,10.0,-999,0.00,,,-99.99,,2013-12-17 14:18:00,
2013-12-17 08:23:00,29.0,-99.9,0.00,West,276,11.0,12.0,-999,0.00,,,-99.99,,2013-12-17 14:23:00,
2013-12-17 08:28:00,29.0,-99.9,0.00,West,266,10.0,11.0,-999,0.00,,,-99.99,,2013-12-17 14:28:00,
2013-12-17 08:33:00,29.0,-99.9,0.00,West,276,10.0,11.0,-999,0.00,,,-99.99,,2013-12-17 14:33:00,
2013-12-17 08:38:00,29.0,-99.9,0.00,West,261,10.0,11.0,-999,0.00,,,-99.99,,2013-12-17 14:38:00,
2013-12-17 08:43:00,29.0,-99.9,0.00,West,271,10.0,11.0,-999,0.00,,,-99.99,,2013-12-17 14:43:00,
2013-12-17 08:48:00,29.0,-99.9,0.00,West,274,10.0,11.0,-999,0.00,,,-99.99,,2013-12-17 14:48:00,
2013-12-17 08:53:00,29.0,-99.9,0.00,West,278,10.0,11.0,-999,0.00,,,-99.99,,2013-12-17 14:53:00,
2013-12-17 08:58:00,30.0,-99.9,0.00,West,272,10.0,11.0,-999,0.00,,,-99.99,,2013-12-17 14:58:00,
2013-12-17 09:03:00,30.0,-99.9,0.00,West,275,10.0,11.0,-999,0.00,,,-99.99,,2013-12-17 15:03:00,
2013-12-17 09:08:00,31.0,-99.9,0.00,West,272,11.0,12.0,-999,0.00,,,-99.99,,2013-12-17 15:08:00,
2013-12-17 09:13:00,31.0,-99.9,0.00,West,272,10.0,11.0,-999,0.00,,,-99.99,,2013-12-17 15:13:00,
2013-12-17 09:18:00,32.0,-99.9,0.00,WNW,283,9.0,10.0,-999,0.00,,,-99.99,,2013-12-17 15:18:00,
2013-12-17 09:23:00,33.0,-99.9,0.00,West,276,10.0,11.0,-999,0.00,,,-99.99,,2013-12-17 15:23:00,
2013-12-17 09:28:00,34.0,-99.9,0.00,West,268,10.0,12.0,-999,0.00,,,-99.99,,2013-12-17 15:28:00,
2013-12-17 09:33:00,35.0,-99.9,0.00,West,261,9.0,12.0,-999,0.00,,,-99.99,,2013-12-17 15:33:00,
2013-12-17 09:38:00,35.0,-99.9,0.00,West,269,9.0,10.0,-999,0.00,,,-99.99,,2013-12-17 15:38:00,
2013-12-17 09:43:00,36.0,-99.9,0.00,West,264,9.0,11.0,-999,0.00,,,-99.99,,2013-12-17 15:43:00,
2013-12-17 09:48:00,37.0,-99.9,0.00,West,279,10.0,11.0,-999,0.00,,,-99.99,,2013-12-17 15:48:00,
2013-12-17 09:53:00,38.0,-99.9,0.00,WNW,302,9.0,10.0,-999,0.00,,,-99.99,,2013-12-17 15:53:00,
2013-12-17 09:58:00,38.0,-99.9,0.00,WNW,292,8.0,9.0,-999,0.00,,,-99.99,,2013-12-17 15:58:00,
2013-12-17 10:03:00,38.0,-99.9,0.00,WNW,295,8.0,9.0,-999,0.00,,,-99.99,,2013-12-17 16:03:00,
2013-12-17 10:08:00,39.0,-99.9,0.00,WNW,298,8.0,10.0,-999,0.00,,,-99.99,,2013-12-17 16:08:00,
2013-12-17 10:13:00,38.0,-99.9,0.00,WNW,290,8.0,9.0,-999,0.00,,,-99.99,,2013-12-17 16:13:00,
2013-12-17 10:18:00,39.0,-99.9,0.00,NW,319,7.0,8.0,-999,0.00,,,-99.99,,2013-12-17 16:18:00,
2013-12-17 10:23:00,39.0,-99.9,0.00,NW,307,7.0,8.0,-999,0.00,,,-99.99,,2013-12-17 16:23:00,
2013-12-17 10:28:00,40.0,-99.9,0.00,NW,310,6.0,7.0,-999,0.00,,,-99.99,,2013-12-17 16:28:00,
2013-12-17 10:33:00,40.0,-99.9,0.00,NW,305,5.0,7.0,-999,0.00,,,-99.99,,2013-12-17 16:33:00,
2013-12-17 10:38:00,41.0,-99.9,0.00,NW,321,7.0,9.0,-999,0.00,,,-99.99,,2013-12-17 16:38:00,
2013-12-17 10:43:00,41.0,-99.9,0.00,NW,321,8.0,11.0,-999,0.00,,,-99.99,,2013-12-17 16:43:00,
2013-12-17 10:48:00,42.0,-99.9,0.00,NW,319,7.0,9.0,-999,0.00,,,-99.99,,2013-12-17 16:48:00,
2013-12-17 10:53:00,43.0,-99.9,0.00,NNW,327,7.0,9.0,-999,0.00,,,-99.99,,2013-12-17 16:53:00,
2013-12-17 10:58:00,44.0,-99.9,0.00,NNW,341,8.0,11.0,-999,0.00,,,-99.99,,2013-12-17 16:58:00,
2013-12-17 11:03:00,44.0,-99.9,0.00,NNW,344,9.0,12.0,-999,0.00,,,-99.99,,2013-12-17 17:03:00,
2013-12-17 11:08:00,44.0,-99.9,0.00,NNW,341,10.0,12.0,-999,0.00,,,-99.99,,2013-12-17 17:08:00,
2013-12-17 11:13:00,44.0,-99.9,0.00,North,358,11.0,13.0,-999,0.00,,,-99.99,,2013-12-17 17:13:00,
2013-12-17 11:18:00,45.0,-99.9,0.00,North,3,11.0,13.0,-999,0.00,,,-99.99,,2013-12-17 17:18:00,
2013-12-17 11:23:00,45.0,-99.9,0.00,NNW,340,11.0,13.0,-999,0.00,,,-99.99,,2013-12-17 17:23:00,
2013-12-17 11:28:00,45.0,-99.9,0.00,North,4,9.0,12.0,-999,0.00,,,-99.99,,2013-12-17 17:28:00,
2013-12-17 11:33:00,45.0,-99.9,0.00,North,7,12.0,15.0,-999,0.00,,,-99.99,,2013-12-17 17:33:00,
2013-12-17 11:38:00,45.0,-99.9,0.00,North,360,9.0,12.0,-999,0.00,,,-99.99,,2013-12-17 17:38:00,
2013-12-17 11:43:00,45.0,-99.9,0.00,North,10,9.0,12.0,-999,0.00,,,-99.99,,2013-12-17 17:43:00,
2013-12-17 11:48:00,46.0,-99.9,0.00,NNW,341,7.0,10.0,-999,0.00,,,-99.99,,2013-12-17 17:48:00,
2013-12-17 11:53:00,45.0,-99.9,0.00,North,7,9.0,10.0,-999,0.00,,,-99.99,,2013-12-17 17:53:00,
2013-12-17 11:58:00,46.0,-99.9,0.00,North,10,8.0,10.0,-999,0.00,,,-99.99,,2013-12-17 17:58:00,
2013-12-17 12:08:00,47.0,-99.9,0.00,NNW,343,7.0,10.0,-999,0.00,,,-99.99,,2013-12-17 18:08:00,
2013-12-17 12:13:00,47.0,-99.9,0.00,North,6,7.0,10.0,-999,0.00,,,-99.99,,2013-12-17 18:13:00,
2013-12-17 12:18:00,47.0,-99.9,0.00,North,1,6.0,9.0,-999,0.00,,,-99.99,,2013-12-17 18:18:00,
2013-12-17 12:23:00,47.0,-99.9,0.00,North,4,7.0,10.0,-999,0.00,,,-99.99,,2013-12-17 18:23:00,
2013-12-17 12:28:00,47.0,-99.9,0.00,NNE,18,6.0,7.0,-999,0.00,,,-99.99,,2013-12-17 18:28:00,
2013-12-17 12:33:00,48.0,-99.9,0.00,North,4,7.0,9.0,-999,0.00,,,-99.99,,2013-12-17 18:33:00,
2013-12-17 12:38:00,47.0,-99.9,0.00,North,1,8.0,10.0,-999,0.00,,,-99.99,,2013-12-17 18:38:00,
2013-12-17 12:43:00,48.0,-99.9,0.00,NNW,338,6.0,9.0,-999,0.00,,,-99.99,,2013-12-17 18:43:00,
2013-12-17 12:48:00,48.0,-99.9,0.00,NE,39,7.0,9.0,-999,0.00,,,-99.99,,2013-12-17 18:48:00,
2013-12-17 12:53:00,48.0,-99.9,0.00,NE,45,6.0,9.0,-999,0.00,,,-99.99,,2013-12-17 18:53:00,
2013-12-17 12:58:00,47.0,-99.9,0.00,NNE,21,4.0,7.0,-999,0.00,,,-99.99,,2013-12-17 18:58:00,
2013-12-17 13:03:00,49.0,-99.9,0.00,NNE,21,5.0,7.0,-999,0.00,,,-99.99,,2013-12-17 19:03:00,
2013-12-17 13:08:00,49.0,-99.9,0.00,North,4,3.0,7.0,-999,0.00,,,-99.99,,2013-12-17 19:08:00,
2013-12-17 13:13:00,49.0,-99.9,0.00,ENE,58,1.0,5.0,-999,0.00,,,-99.99,,2013-12-17 19:13:00,
2013-12-17 13:18:00,49.0,-99.9,0.00,North,0,0.0,0.0,-999,0.00,,,-99.99,,2013-12-17 19:18:00,
2013-12-17 13:23:00,49.0,-99.9,0.00,North,0,0.0,0.0,-999,0.00,,,-99.99,,2013-12-17 19:23:00,
2013-12-17 13:28:00,49.0,-99.9,0.00,North,0,0.0,0.0,-999,0.00,,,-99.99,,2013-12-17 19:28:00,
2013-12-17 13:33:00,49.0,-99.9,0.00,North,0,0.0,0.0,-999,0.00,,,-99.99,,2013-12-17 19:33:00,
2013-12-17 13:38:00,49.0,-99.9,0.00,North,0,0.0,0.0,-999,0.00,,,-99.99,,2013-12-17 19:38:00,
2013-12-17 13:43:00,50.0,-99.9,0.00,North,0,0.0,0.0,-999,0.00,,,-99.99,,2013-12-17 19:43:00,
2013-12-17 13:48:00,49.0,-99.9,0.00,North,0,0.0,0.0,-999,0.00,,,-99.99,,2013-12-17 19:48:00,
2013-12-17 13:53:00,49.0,-99.9,0.00,North,0,0.0,0.0,-999,0.00,,,-99.99,,2013-12-17 19:53:00,
2013-12-17 13:58:00,49.0,-99.9,0.00,SE,145,6.0,7.0,-999,0.00,,,-99.99,,2013-12-17 19:58:00,
2013-12-17 14:03:00,49.0,-99.9,0.00,SE,145,6.0,7.0,-999,0.00,,,-99.99,,2013-12-17 20:03:00,
2013-12-17 14:08:00,49.0,-99.9,0.00,SSE,151,3.0,4.0,-999,0.00,,,-99.99,,2013-12-17 20:08:00,
2013-12-17 14:13:00,50.0,-99.9,0.00,SSE,166,7.0,8.0,-999,0.00,,,-99.99,,2013-12-17 20:13:00,
2013-12-17 14:18:00,50.0,-99.9,0.00,South,173,8.0,9.0,-999,0.00,,,-99.99,,2013-12-17 20:18:00,
2013-12-17 14:23:00,50.0,-99.9,0.00,SSE,168,6.0,8.0,-999,0.00,,,-99.99,,2013-12-17 20:23:00,
2013-12-17 14:28:00,50.0,-99.9,0.00,SSW,199,6.0,9.0,-999,0.00,,,-99.99,,2013-12-17 20:28:00,
2013-12-17 14:33:00,50.0,-99.9,0.00,SW,219,6.0,8.0,-999,0.00,,,-99.99,,2013-12-17 20:33:00,
2013-12-17 14:38:00,50.0,-99.9,0.00,SSE,161,8.0,9.0,-999,0.00,,,-99.99,,2013-12-17 20:38:00,
2013-12-17 14:43:00,50.0,-99.9,0.00,SSE,149,8.0,9.0,-999,0.00,,,-99.99,,2013-12-17 20:43:00,
2013-12-17 14:48:00,50.0,-99.9,0.00,SE,142,8.0,9.0,-999,0.00,,,-99.99,,2013-12-17 20:48:00,
2013-12-17 14:53:00,51.0,-99.9,0.00,SSE,154,9.0,11.0,-999,0.00,,,-99.99,,2013-12-17 20:53:00,
2013-12-17 14:58:00,51.0,-99.9,0.00,SSE,162,6.0,8.0,-999,0.00,,,-99.99,,2013-12-17 20:58:00,
2013-12-17 15:03:00,51.0,-99.9,0.00,SE,144,8.0,9.0,-999,0.00,,,-99.99,,2013-12-17 21:03:00,
2013-12-17 15:08:00,51.0,-99.9,0.00,SSE,165,7.0,9.0,-999,0.00,,,-99.99,,2013-12-17 21:08:00,
2013-12-17 15:13:00,51.0,-99.9,0.00,SSE,159,9.0,10.0,-999,0.00,,,-99.99,,2013-12-17 21:13:00,
2013-12-17 15:18:00,51.0,-99.9,0.00,SSE,157,9.0,11.0,-999,0.00,,,-99.99,,2013-12-17 21:18:00,
2013-12-17 15:23:00,51.0,-99.9,0.00,South,169,10.0,11.0,-999,0.00,,,-99.99,,2013-12-17 21:23:00,
2013-12-17 15:28:00,51.0,-99.9,0.00,SSE,154,10.0,11.0,-999,0.00,,,-99.99,,2013-12-17 21:28:00,
2013-12-17 15:33:00,51.0,-99.9,0.00,South,175,12.0,13.0,-999,0.00,,,-99.99,,2013-12-17 21:33:00,
2013-12-17 15:38:00,51.0,-99.9,0.00,SSE,149,11.0,12.0,-999,0.00,,,-99.99,,2013-12-17 21:38:00,
2013-12-17 15:43:00,51.0,-99.9,0.00,SSE,161,10.0,11.0,-999,0.00,,,-99.99,,2013-12-17 21:43:00,
2013-12-17 15:48:00,51.0,-99.9,0.00,SSE,165,11.0,13.0,-999,0.00,,,-99.99,,2013-12-17 21:48:00,
2013-12-17 15:53:00,51.0,-99.9,0.00,South,176,12.0,14.0,-999,0.00,,,-99.99,,2013-12-17 21:53:00,
2013-12-17 15:58:00,51.0,-99.9,0.00,South,173,12.0,13.0,-999,0.00,,,-99.99,,2013-12-17 21:58:00,
2013-12-17 16:03:00,51.0,-99.9,0.00,South,169,12.0,13.0,-999,0.00,,,-99.99,,2013-12-17 22:03:00,
2013-12-17 16:08:00,51.0,-99.9,0.00,SSE,157,12.0,13.0,-999,0.00,,,-99.99,,2013-12-17 22:08:00,
2013-12-17 16:13:00,50.0,-99.9,0.00,SSE,155,13.0,14.0,-999,0.00,,,-99.99,,2013-12-17 22:13:00,
2013-12-17 16:18:00,50.0,-99.9,0.00,SSE,148,13.0,14.0,-999,0.00,,,-99.99,,2013-12-17 22:18:00,
2013-12-17 16:23:00,50.0,-99.9,0.00,SSE,161,10.0,13.0,-999,0.00,,,-99.99,,2013-12-17 22:23:00,
2013-12-17 16:28:00,50.0,-99.9,0.00,SSE,157,10.0,11.0,-999,0.00,,,-99.99,,2013-12-17 22:28:00,
2013-12-17 16:33:00,49.0,-99.9,0.00,SSE,148,9.0,11.0,-999,0.00,,,-99.99,,2013-12-17 22:33:00,
2013-12-17 16:38:00,48.0,-99.9,0.00,SE,142,10.0,11.0,-999,0.00,,,-99.99,,2013-12-17 22:38:00,
2013-12-17 16:43:00,48.0,-99.9,0.00,SE,144,9.0,10.0,-999,0.00,,,-99.99,,2013-12-17 22:43:00,
2013-12-17 16:48:00,47.0,-99.9,0.00,ESE,121,8.0,9.0,-999,0.00,,,-99.99,,2013-12-17 22:48:00,
2013-12-17 16:53:00,47.0,-99.9,0.00,SE,137,6.0,8.0,-999,0.00,,,-99.99,,2013-12-17 22:53:00,
2013-12-17 16:58:00,46.0,-99.9,0.00,SE,142,8.0,9.0,-999,0.00,,,-99.99,,2013-12-17 22:58:00,
2013-12-17 17:03:00,46.0,-99.9,0.00,SE,145,7.0,8.0,-999,0.00,,,-99.99,,2013-12-17 23:03:00,
2013-12-17 17:08:00,46.0,-99.9,0.00,SE,138,7.0,8.0,-999,0.00,,,-99.99,,2013-12-17 23:08:00,
2013-12-17 17:13:00,44.0,-99.9,0.00,SSE,161,6.0,8.0,-999,0.00,,,-99.99,,2013-12-17 23:13:00,
2013-12-17 17:18:00,44.0,-99.9,0.00,SSE,152,7.0,7.0,-999,0.00,,,-99.99,,2013-12-17 23:18:00,
2013-12-17 17:23:00,42.0,-99.9,0.00,SSE,152,7.0,7.0,-999,0.00,,,-99.99,,2013-12-17 23:23:00,
2013-12-17 17:28:00,41.0,-99.9,0.00,SSE,148,7.0,8.0,-999,0.00,,,-99.99,,2013-12-17 23:28:00,
2013-12-17 17:33:00,40.0,-99.9,0.00,SE,145,8.0,9.0,-999,0.00,,,-99.99,,2013-12-17 23:33:00,
2013-12-17 17:38:00,39.0,-99.9,0.00,SSE,147,7.0,9.0,-999,0.00,,,-99.99,,2013-12-17 23:38:00,
2013-12-17 17:43:00,38.0,-99.9,0.00,SSE,149,8.0,9.0,-999,0.00,,,-99.99,,2013-12-17 23:43:00,
2013-12-17 17:48:00,38.0,-99.9,0.00,SSE,147,9.0,10.0,-999,0.00,,,-99.99,,2013-12-17 23:48:00,
2013-12-17 17:53:00,37.0,-99.9,0.00,SSE,147,10.0,11.0,-999,0.00,,,-99.99,,2013-12-17 23:53:00,
2013-12-17 17:58:00,35.0,-99.9,0.00,SSE,157,10.0,10.0,-999,0.00,,,-99.99,,2013-12-17 23:58:00,
2013-12-17 18:03:00,35.0,-99.9,0.00,SSE,152,9.0,10.0,-999,0.00,,,-99.99,,2013-12-18 00:03:00,
2013-12-17 18:08:00,36.0,-99.9,0.00,SSE,161,11.0,12.0,-999,0.00,,,-99.99,,2013-12-18 00:08:00,
2013-12-17 18:13:00,36.0,-99.9,0.00,SSE,162,12.0,12.0,-999,0.00,,,-99.99,,2013-12-18 00:13:00,
2013-12-17 18:18:00,36.0,-99.9,0.00,SSE,168,13.0,13.0,-999,0.00,,,-99.99,,2013-12-18 00:18:00,
2013-12-17 18:23:00,36.0,-99.9,0.00,SSE,166,12.0,14.0,-999,0.00,,,-99.99,,2013-12-18 00:23:00,
2013-12-17 18:28:00,36.0,-99.9,0.00,SSE,166,12.0,13.0,-999,0.00,,,-99.99,,2013-12-18 00:28:00,
2013-12-17 18:33:00,36.0,-99.9,0.00,South,175,12.0,14.0,-999,0.00,,,-99.99,,2013-12-18 00:33:00,
2013-12-17 18:38:00,35.0,-99.9,0.00,South,176,13.0,14.0,-999,0.00,,,-99.99,,2013-12-18 00:38:00,
2013-12-17 18:43:00,36.0,-99.9,0.00,South,171,13.0,15.0,-999,0.00,,,-99.99,,2013-12-18 00:43:00,
2013-12-17 18:48:00,35.0,-99.9,0.00,SSE,165,14.0,15.0,-999,0.00,,,-99.99,,2013-12-18 00:48:00,
2013-12-17 18:53:00,36.0,-99.9,0.00,SSE,164,14.0,15.0,-999,0.00,,,-99.99,,2013-12-18 00:53:00,
2013-12-17 18:58:00,36.0,-99.9,0.00,SSE,168,13.0,15.0,-999,0.00,,,-99.99,,2013-12-18 00:58:00,
2013-12-17 19:03:00,36.0,-99.9,0.00,SSE,166,13.0,14.0,-999,0.00,,,-99.99,,2013-12-18 01:03:00,
2013-12-17 19:08:00,36.0,-99.9,0.00,South,173,13.0,14.0,-999,0.00,,,-99.99,,2013-12-18 01:08:00,
2013-12-17 19:13:00,37.0,-99.9,0.00,South,171,13.0,16.0,-999,0.00,,,-99.99,,2013-12-18 01:13:00,
2013-12-17 19:18:00,37.0,-99.9,0.00,South,171,14.0,15.0,-999,0.00,,,-99.99,,2013-12-18 01:18:00,
2013-12-17 19:23:00,36.0,-99.9,0.00,South,185,13.0,16.0,-999,0.00,,,-99.99,,2013-12-18 01:23:00,
2013-12-17 19:28:00,38.0,-99.9,0.00,South,172,14.0,17.0,-999,0.00,,,-99.99,,2013-12-18 01:28:00,
2013-12-17 19:33:00,38.0,-99.9,0.00,South,180,14.0,16.0,-999,0.00,,,-99.99,,2013-12-18 01:33:00,
2013-12-17 19:38:00,39.0,-99.9,0.00,South,188,16.0,19.0,-999,0.00,,,-99.99,,2013-12-18 01:38:00,
2013-12-17 19:43:00,38.0,-99.9,0.00,South,185,16.0,19.0,-999,0.00,,,-99.99,,2013-12-18 01:43:00,
2013-12-17 19:48:00,38.0,-99.9,0.00,South,179,16.0,18.0,-999,0.00,,,-99.99,,2013-12-18 01:48:00,
2013-12-17 19:53:00,38.0,-99.9,0.00,SSW,192,15.0,18.0,-999,0.00,,,-99.99,,2013-12-18 01:53:00,
2013-12-17 19:58:00,37.0,-99.9,0.00,South,189,15.0,17.0,-999,0.00,,,-99.99,,2013-12-18 01:58:00,
2013-12-17 20:03:00,37.0,-99.9,0.00,South,183,15.0,17.0,-999,0.00,,,-99.99,,2013-12-18 02:03:00,
2013-12-17 20:08:00,37.0,-99.9,0.00,South,189,16.0,19.0,-999,0.00,,,-99.99,,2013-12-18 02:08:00,
2013-12-17 20:13:00,38.0,-99.9,0.00,SSW,193,16.0,18.0,-999,0.00,,,-99.99,,2013-12-18 02:13:00,
2013-12-17 20:18:00,38.0,-99.9,0.00,South,182,16.0,19.0,-999,0.00,,,-99.99,,2013-12-18 02:18:00,
2013-12-17 20:23:00,38.0,-99.9,0.00,South,183,16.0,19.0,-999,0.00,,,-99.99,,2013-12-18 02:23:00,
2013-12-17 20:28:00,38.0,-99.9,0.00,SSW,192,17.0,19.0,-999,0.00,,,-99.99,,2013-12-18 02:28:00,
2013-12-17 20:33:00,39.0,-99.9,0.00,South,183,17.0,20.0,-999,0.00,,,-99.99,,2013-12-18 02:33:00,
2013-12-17 20:38:00,38.0,-99.9,0.00,South,172,17.0,20.0,-999,0.00,,,-99.99,,2013-12-18 02:38:00,
2013-12-17 20:43:00,38.0,-99.9,0.00,South,189,17.0,20.0,-999,0.00,,,-99.99,,2013-12-18 02:43:00,
2013-12-17 20:48:00,38.0,-99.9,0.00,SSW,196,17.0,19.0,-999,0.00,,,-99.99,,2013-12-18 02:48:00,
2013-12-17 20:53:00,38.0,-99.9,0.00,SSW,193,17.0,20.0,-999,0.00,,,-99.99,,2013-12-18 02:53:00,
2013-12-17 20:58:00,38.0,-99.9,0.00,SSW,203,15.0,18.0,-999,0.00,,,-99.99,,2013-12-18 02:58:00,
2013-12-17 21:03:00,38.0,-99.9,0.00,South,188,16.0,18.0,-999,0.00,,,-99.99,,2013-12-18 03:03:00,
2013-12-17 21:08:00,38.0,-99.9,0.00,SSW,197,15.0,19.0,-999,0.00,,,-99.99,,2013-12-18 03:08:00,
2013-12-17 21:13:00,38.0,-99.9,0.00,SSW,195,16.0,18.0,-999,0.00,,,-99.99,,2013-12-18 03:13:00,
2013-12-17 21:18:00,38.0,-99.9,0.00,SSW,192,17.0,19.0,-999,0.00,,,-99.99,,2013-12-18 03:18:00,
2013-12-17 21:23:00,39.0,-99.9,0.00,South,190,17.0,21.0,-999,0.00,,,-99.99,,2013-12-18 03:23:00,
2013-12-17 21:28:00,39.0,-99.9,0.00,SSW,195,17.0,20.0,-999,0.00,,,-99.99,,2013-12-18 03:28:00,
2013-12-17 21:33:00,39.0,-99.9,0.00,SSW,202,17.0,20.0,-999,0.00,,,-99.99,,2013-12-18 03:33:00,
2013-12-17 21:38:00,40.0,-99.9,0.00,South,186,17.0,21.0,-999,0.00,,,-99.99,,2013-12-18 03:38:00,
2013-12-17 21:43:00,40.0,-99.9,0.00,South,186,17.0,22.0,-999,0.00,,,-99.99,,2013-12-18 03:43:00,
2013-12-17 21:48:00,41.0,-99.9,0.00,SSW,199,19.0,24.0,-999,0.00,,,-99.99,,2013-12-18 03:48:00,
2013-12-17 21:53:00,41.0,-99.9,0.00,South,175,20.0,24.0,-999,0.00,,,-99.99,,2013-12-18 03:53:00,
2013-12-17 21:58:00,41.0,-99.9,0.00,South,178,20.0,23.0,-999,0.00,,,-99.99,,2013-12-18 03:58:00,
2013-12-17 22:03:00,41.0,-99.9,0.00,South,189,19.0,22.0,-999,0.00,,,-99.99,,2013-12-18 04:03:00,
2013-12-17 22:08:00,41.0,-99.9,0.00,South,185,19.0,23.0,-999,0.00,,,-99.99,,2013-12-18 04:08:00,
2013-12-17 22:13:00,41.0,-99.9,0.00,SSW,192,18.0,22.0,-999,0.00,,,-99.99,,2013-12-18 04:13:00,
2013-12-17 22:18:00,41.0,-99.9,0.00,SSW,202,18.0,21.0,-999,0.00,,,-99.99,,2013-12-18 04:18:00,
2013-12-17 22:23:00,41.0,-99.9,0.00,SSW,202,19.0,23.0,-999,0.00,,,-99.99,,2013-12-18 04:23:00,
2013-12-17 22:28:00,41.0,-99.9,0.00,South,186,20.0,24.0,-999,0.00,,,-99.99,,2013-12-18 04:28:00,
2013-12-17 22:33:00,41.0,-99.9,0.00,South,190,20.0,24.0,-999,0.00,,,-99.99,,2013-12-18 04:33:00,
2013-12-17 22:38:00,42.0,-99.9,0.00,SSW,195,20.0,24.0,-999,0.00,,,-99.99,,2013-12-18 04:38:00,
2013-12-17 22:43:00,42.0,-99.9,0.00,South,189,20.0,23.0,-999,0.00,,,-99.99,,2013-12-18 04:43:00,
2013-12-17 22:48:00,42.0,-99.9,0.00,SSW,193,20.0,23.0,-999,0.00,,,-99.99,,2013-12-18 04:48:00,
2013-12-17 22:53:00,42.0,-99.9,0.00,SSW,196,20.0,23.0,-999,0.00,,,-99.99,,2013-12-18 04:53:00,
2013-12-17 22:58:00,42.0,-99.9,0.00,South,190,20.0,24.0,-999,0.00,,,-99.99,,2013-12-18 04:58:00,
2013-12-17 23:03:00,42.0,-99.9,0.00,SSW,197,21.0,25.0,-999,0.00,,,-99.99,,2013-12-18 05:03:00,
2013-12-17 23:08:00,42.0,-99.9,0.00,South,180,21.0,26.0,-999,0.00,,,-99.99,,2013-12-18 05:08:00,
2013-12-17 23:13:00,41.0,-99.9,0.00,South,178,20.0,24.0,-999,0.00,,,-99.99,,2013-12-18 05:13:00,
2013-12-17 23:18:00,41.0,-99.9,0.00,South,176,20.0,24.0,-999,0.00,,,-99.99,,2013-12-18 05:18:00,
2013-12-17 23:23:00,41.0,-99.9,0.00,SSW,192,21.0,23.0,-999,0.00,,,-99.99,,2013-12-18 05:23:00,
2013-12-17 23:28:00,41.0,-99.9,0.00,South,182,21.0,24.0,-999,0.00,,,-99.99,,2013-12-18 05:28:00,
2013-12-17 23:33:00,41.0,-99.9,0.00,SSW,197,20.0,24.0,-999,0.00,,,-99.99,,2013-12-18 05:33:00,
2013-12-17 23:38:00,41.0,-99.9,0.00,South,186,21.0,25.0,-999,0.00,,,-99.99,,2013-12-18 05:38:00,
2013-12-17 23:43:00,41.0,-99.9,0.00,SSW,206,20.0,23.0,-999,0.00,,,-99.99,,2013-12-18 05:43:00,
2013-12-17 23:48:00,41.0,-99.9,0.00,South,190,20.0,23.0,-999,0.00,,,-99.99,,2013-12-18 05:48:00,
2013-12-17 23:53:00,40.0,-99.9,0.00,South,178,20.0,25.0,-999,0.00,,,-99.99,,2013-12-18 05:53:00,
2013-12-17 23:58:00,40.0,-99.9,0.00,SSW,197,20.0,23.0,-999,0.00,,,-99.99,,2013-12-18 05:58:00,